Location: Davidschlag
(48.4333°N, 14.2833°E)
Time: 15:24:57
(UTC+00:00)

Cosmos 2242 Rocket - Pass Details

Date: 27 February 2020
Orbit: 619 x 650 km, 82.5° (Epoch: 27 March)

Event Time Altitude Azimuth Distance (km) Brightness Sun altitude
Rises 17:18:04 0° 352° (N) 2,964 7.1 -6.6°
Reaches altitude 10° 17:20:21 10° 356° (N) 2,054 6.2 -7.0°
Maximum altitude 17:24:53 65° 78° (ENE) 718 3.6 -7.8°
Drops below altitude 10° 17:29:25 10° 161° (SSE) 2,049 6.1 -8.5°
Sets 17:31:41 0° 164° (SSE) 2,957 6.9 -8.9°
